Aérodrome :
LOGIN :

S'inscrire | Disclaimer

   EN    FR    IT 

 










Légende :    VFR   VFR Marginal   IFR   IFR Intensif   IFR Très Intensif
Visi : 
Plafond : 
>= 8 km
>= 3000ft
5 à 8 km
1000 à 3000 ft
1500m à 5 km
500 à 1000 ft
800 à 1500m
200 à 500 ft
< 800m
< 200 ft
Symboles :   Orages  Brouillard  Fortes neiges  Fortes précipitations  Vent > 20 kt
SIGMETs :   Divers  Orages  Givrage  Turbulence  Onde Orograph.  Cendres Volcan.







- Altitude de l'aérodrome : 1830 ft


EBLB - Butgenbach Elsenborn

DERNIER METAR :
  • 191725Z AUTO 06010KT 5000 -SN OVC011/// 00/M01 Q1010 GRN

METARs EXPIRÉS :
  • 191711Z AUTO 06009KT 3600 -SN OVC014/// 00/M02 Q1011 YLO
  • 191655Z AUTO 06010KT 9000 -SN OVC014/// 00/M02 Q1011 GRN
  • 191625Z AUTO 06010KT 9999 -SN BKN014/// 00/M02 Q1011 GRN
  • 191555Z AUTO 06008KT 9999 -SN OVC010/// 00/M01 Q1011 GRN
  • 191525Z AUTO 06008KT 5000 -SN OVC011/// 00/M01 Q1012 GRN
  • 191455Z AUTO 05008KT 7000 -SN OVC015/// 01/M02 Q1012 WHT

Prévision TAF périmée.
Pas de NOTAMs connus pour ce terrain.



MET'MAP, la Météo Aéronautique d'un coup d'oeil ! - Copyright ORBIFLY Décembre 2007 - Disclaimer

ORBIFLY MET'MAP TEAM :

Programmation & Développement : Alexandra Zaïnal
Conception & Développement : Baudouin d'Aumeries
Co-Programmation & Développement : Marc-Olivier Méhu
Soutien technique & logistique : Manuel Goepfert

Contact : metmap@orbifly.com




SOURCES & CREDITS :

   NOAA